Weather History for KBKS - April, 2013

Change the Weather History Date:

Tuesday, April 23, 2013

  Actual Average (KNQI) Record (KNQI)
Temperature  
Mean Temperature 78 °F -  
Max Temperature 87 °F 81 °F 91 °F (1998)
Min Temperature 70 °F 63 °F 48 °F (1998)
Cooling Degree Days 13    
Growing Degree Days 28 (Base 50)    
Moisture  
Dew Point 68 °F    
Average Humidity 74    
Maximum Humidity 89    
Minimum Humidity 49    
Precipitation  
Precipitation 0.00 in - - ()
Sea Level Pressure  
Sea Level Pressure 29.85 in    
Wind  
Wind Speed 11 mph (SE)    
Max Wind Speed 22 mph    
Max Gust Speed 29 mph    
Visibility 10 miles    
Events      
Averages and records for this station are not official NWS values.
T = Trace of Precipitation, MM = Missing Value Source: NWS Daily Summary

Daily Weather History Graph

Daily Weather History Graph

Search for Another Location

Airport or City:

Trip Planner

Search our weather history database for the weather conditions in past years. The results will help you decide how hot, cold, wet, or windy it might be!

Date:

Astronomy

Apr. 23, 2013 Rise Set
Actual Time 7:00 AM CDT 8:01 PM CDT
Civil Twilight 6:36 AM CDT 8:25 PM CDT
Nautical Twilight 6:07 AM CDT 8:54 PM CDT
Astronomical Twilight 5:38 AM CDT 9:23 PM CDT
Moon 6:06 PM CDT (4/23) 5:17 AM CDT (4/23)
Length of Visible Light 13h 49m
Length of Day
13h 01m
Waxing Gibbous, 94% of the Moon is Illuminated
Apr 23
Waxing Gibbous
Apr 25
Full
May 2
Last Quarter
May 9
New
May 17
First Quarter

Hourly Weather History & Observations

Time (CDT) Temp. Heat Index Dew Point Humidity Pressure Visibility Wind Dir Wind Speed Gust Speed Precip Events Conditions
12:15 AM 71.6 °F - 67.5 °F 87% 29.93 in 10.0 mi SSE 8.1 mph - N/A   Overcast
12:35 AM 71.1 °F - 67.5 °F 88% 29.93 in 10.0 mi SSE 9.2 mph - N/A   Mostly Cloudy
1:15 AM 70.3 °F - 67.1 °F 89% 29.92 in 10.0 mi SE 11.5 mph - N/A   Mostly Cloudy
1:35 AM 70.7 °F - 67.3 °F 89% 29.92 in 10.0 mi SSE 11.5 mph - N/A   Overcast
1:55 AM 70.9 °F - 67.3 °F 88% 29.91 in 10.0 mi SSE 11.5 mph 18.4 mph N/A   Overcast
2:15 AM 71.1 °F - 67.1 °F 87% 29.91 in 10.0 mi SSE 9.2 mph - N/A   Overcast
2:35 AM 70.7 °F - 67.1 °F 88% 29.90 in 10.0 mi SSE 8.1 mph - N/A   Mostly Cloudy
2:55 AM 70.9 °F - 67.1 °F 88% 29.89 in 10.0 mi SSE 9.2 mph - N/A   Overcast
3:15 AM 70.9 °F - 67.1 °F 88% 29.88 in 10.0 mi SSE 10.4 mph - N/A   Overcast
3:35 AM 71.1 °F - 66.9 °F 87% 29.87 in 10.0 mi SE 11.5 mph 16.1 mph N/A   Overcast
3:55 AM 71.1 °F - 66.7 °F 86% 29.86 in 10.0 mi SE 8.1 mph - N/A   Overcast
4:15 AM 70.7 °F - 66.6 °F 87% 29.86 in 10.0 mi SE 8.1 mph - N/A   Mostly Cloudy
4:35 AM 70.2 °F - 66.4 °F 88% 29.85 in 10.0 mi SSE 9.2 mph - N/A   Mostly Cloudy
4:55 AM 70.3 °F - 66.6 °F 88% 29.85 in 10.0 mi SSE 9.2 mph - N/A   Overcast
5:15 AM 70.7 °F - 66.6 °F 87% 29.85 in 10.0 mi SE 9.2 mph - N/A   Overcast
5:35 AM 70.7 °F - 66.4 °F 86% 29.84 in 10.0 mi SE 8.1 mph - N/A   Overcast
5:55 AM 71.1 °F - 66.6 °F 86% 29.84 in 10.0 mi SE 9.2 mph - N/A   Overcast
6:15 AM 71.1 °F - 66.7 °F 86% 29.84 in 10.0 mi SE 9.2 mph - N/A   Overcast
6:35 AM 71.2 °F - 67.1 °F 87% 29.84 in 10.0 mi SE 6.9 mph - N/A   Overcast
6:55 AM 71.1 °F - 67.1 °F 87% 29.85 in 10.0 mi SE 9.2 mph - N/A   Overcast
7:15 AM 70.9 °F - 67.1 °F 88% 29.85 in 10.0 mi SE 6.9 mph - N/A   Overcast
7:35 AM 71.1 °F - 67.1 °F 87% 29.86 in 10.0 mi ESE 6.9 mph - N/A   Overcast
7:55 AM 71.6 °F - 67.1 °F 86% 29.86 in 10.0 mi ESE 9.2 mph - N/A   Overcast
8:15 AM 72.5 °F - 67.3 °F 84% 29.86 in 10.0 mi SE 9.2 mph - N/A   Mostly Cloudy
8:35 AM 72.9 °F - 67.1 °F 82% 29.87 in 10.0 mi SE 9.2 mph 17.3 mph N/A   Overcast
8:55 AM 73.6 °F - 66.9 °F 80% 29.88 in 10.0 mi SE 11.5 mph 18.4 mph N/A   Overcast
9:15 AM 75.0 °F - 66.4 °F 74% 29.88 in 5.0 mi SE 15.0 mph 19.6 mph N/A   Overcast
9:35 AM 75.4 °F - 66.6 °F 74% 29.88 in 10.0 mi SE 15.0 mph - N/A   Overcast
9:55 AM 76.1 °F - 66.6 °F 72% 29.88 in 10.0 mi SE 11.5 mph 18.4 mph N/A   Overcast
10:15 AM 76.6 °F - 66.7 °F 71% 29.88 in 7.0 mi SE 17.3 mph 23.0 mph N/A   Overcast
10:35 AM 77.5 °F - 67.1 °F 70% 29.87 in 10.0 mi SSE 12.7 mph 19.6 mph N/A   Overcast
10:55 AM 79.3 °F - 66.9 °F 66% 29.87 in 10.0 mi SSE 15.0 mph 25.3 mph N/A   Overcast
11:15 AM 81.5 °F 83.7 °F 66.4 °F 60% 29.86 in 10.0 mi SSE 20.7 mph 26.5 mph N/A   Mostly Cloudy
11:35 AM 81.9 °F 84.1 °F 66.4 °F 59% 29.86 in 7.0 mi SE 18.4 mph 25.3 mph N/A   Overcast
11:55 AM 82.9 °F 85.2 °F 66.2 °F 57% 29.85 in 7.0 mi SE 21.9 mph 28.8 mph N/A   Overcast
12:15 PM 83.1 °F 85.4 °F 66.4 °F 57% 29.85 in 10.0 mi SE 19.6 mph 24.2 mph N/A   Overcast
12:35 PM 82.9 °F 85.4 °F 66.9 °F 58% 29.85 in 10.0 mi SE 15.0 mph 23.0 mph N/A   Overcast
12:55 PM 82.8 °F 85.1 °F 66.7 °F 58% 29.84 in 10.0 mi SE 15.0 mph 21.9 mph N/A   Overcast
1:15 PM 83.8 °F 86.3 °F 66.4 °F 56% 29.83 in 10.0 mi SE 16.1 mph 21.9 mph N/A   Overcast
1:35 PM 83.7 °F 86.2 °F 66.9 °F 57% 29.83 in 10.0 mi SSE 13.8 mph 21.9 mph N/A   Overcast
1:55 PM 84.6 °F 86.8 °F 66.4 °F 54% 29.82 in 7.0 mi SE 17.3 mph 23.0 mph N/A   Overcast
2:15 PM 84.9 °F 87.1 °F 66.2 °F 53% 29.81 in 10.0 mi SSE 17.3 mph - N/A   Overcast
2:35 PM 86.7 °F 88.7 °F 65.3 °F 49% 29.80 in 7.0 mi SSE 16.1 mph 25.3 mph N/A   Mostly Cloudy
2:55 PM 86.7 °F 89.0 °F 66.2 °F 50% 29.80 in 5.0 mi ESE 15.0 mph 19.6 mph N/A   Overcast
3:15 PM 85.3 °F 87.9 °F 66.9 °F 54% 29.79 in 5.0 mi SE 13.8 mph 23.0 mph N/A   Overcast
3:35 PM 85.3 °F 88.2 °F 67.5 °F 55% 29.78 in 10.0 mi SE 12.7 mph 25.3 mph N/A   Mostly Cloudy
3:55 PM 85.8 °F 89.1 °F 68.0 °F 55% 29.79 in 7.0 mi SSE 13.8 mph 21.9 mph N/A   Mostly Cloudy
4:15 PM 85.3 °F 88.5 °F 68.0 °F 56% 29.79 in 10.0 mi SSE 11.5 mph 18.4 mph N/A   Overcast
4:35 PM 85.1 °F 88.5 °F 68.2 °F 57% 29.78 in 10.0 mi ESE 13.8 mph - N/A   Overcast
4:55 PM 83.8 °F 87.5 °F 68.9 °F 61% 29.78 in 10.0 mi ESE 16.1 mph 21.9 mph N/A   Overcast
5:35 PM 83.1 °F 86.6 °F 69.1 °F 62% 29.78 in 10.0 mi ESE 16.1 mph 23.0 mph N/A   Overcast
5:55 PM 84.0 °F 87.6 °F 68.9 °F 60% 29.78 in 10.0 mi ESE 11.5 mph 20.7 mph N/A   Overcast
6:15 PM 83.8 °F 87.8 °F 69.6 °F 62% 29.78 in 10.0 mi ESE 15.0 mph 23.0 mph N/A   Scattered Clouds
6:35 PM 83.1 °F 87.1 °F 69.8 °F 64% 29.78 in 10.0 mi ESE 18.4 mph 23.0 mph N/A   Clear
6:55 PM 81.9 °F 85.6 °F 69.8 °F 67% 29.79 in 10.0 mi ESE 15.0 mph - N/A   Clear
7:15 PM 81.5 °F 85.3 °F 70.3 °F 69% 29.79 in 10.0 mi ESE 16.1 mph 20.7 mph N/A   Scattered Clouds
7:35 PM 80.6 °F 84.2 °F 70.7 °F 72% 29.80 in 10.0 mi ESE 16.1 mph - N/A   Clear
7:55 PM 79.9 °F - 70.7 °F 73% 29.81 in 10.0 mi ESE 12.7 mph 18.4 mph N/A   Clear
8:15 PM 79.2 °F - 70.7 °F 75% 29.82 in 10.0 mi SE 9.2 mph - N/A   Clear
8:35 PM 78.8 °F - 70.7 °F 76% 29.84 in 10.0 mi ESE 9.2 mph - N/A   Mostly Cloudy
8:55 PM 78.4 °F - 70.9 °F 77% 29.85 in 10.0 mi ESE 8.1 mph - N/A   Overcast
9:15 PM 77.9 °F - 70.9 °F 79% 29.85 in 10.0 mi ESE 10.4 mph 16.1 mph N/A   Scattered Clouds
9:35 PM 77.5 °F - 70.9 °F 80% 29.86 in 10.0 mi SE 13.8 mph 17.3 mph N/A   Clear
9:55 PM 77.2 °F - 70.9 °F 81% 29.87 in 10.0 mi SE 9.2 mph - N/A   Clear
10:15 PM 77.0 °F - 70.9 °F 81% 29.88 in 7.0 mi SE 10.4 mph - N/A   Clear
10:35 PM 77.0 °F - 71.1 °F 82% 29.89 in 10.0 mi SE 10.4 mph 17.3 mph N/A   Clear
10:55 PM 76.6 °F - 71.1 °F 83% 29.89 in 10.0 mi ESE 9.2 mph - N/A   Clear
11:15 PM 76.5 °F - 71.1 °F 83% 29.91 in 10.0 mi SE 9.2 mph - N/A   Clear
11:35 PM 76.1 °F - 70.9 °F 84% 29.91 in 10.0 mi ESE 6.9 mph - N/A   Clear
11:55 PM 76.1 °F - 70.9 °F 84% 29.92 in 10.0 mi ESE 5.8 mph - N/A   Scattered Clouds